Regional Weather Roundup
Issued by NWS

Home | Current Version | Previous Version | Graphics & Text | Print | Product List | Glossary Off
Versions: 1 2 3 4 5 6 7 8 9 10 11 12 13 14 15 16 17 18 19 20 21 22 23 24 25 26 27 28 29 30 31 32 33 34 35 36 37 38 39 40 41 42 43 44 45 46 47 48 49 50

000
ASUS45 KCYS 232310
RWRWY

WYOMING REGIONAL WEATHER ROUNDUP
NATIONAL WEATHER SERVICE CHEYENNE WY
500 PM MDT SAT SEP 23 2017

NOTE:  "FAIR" INDICATES FEW OR NO CLOUDS BELOW 12,000 FEET
WITH NO SIGNIFICANT WEATHER AND/OR OBSTRUCTIONS TO VISIBILITY.

WYZ001-240000-
YELLOWSTONE NATIONAL PARK

CITY           SKY/WX    TMP DP  RH WIND       PRES   REMARKS
LK YELLOWSTONE NOT AVBL
W YELLOWSTONE  NOT AVBL

$$
WYZ002>013-054>058-071-098>099-240000-
NORTHERN WYOMING

CITY           SKY/WX    TMP DP  RH WIND       PRES   REMARKS
JACKSON        PTSUNNY   50  28  42 VRB3      29.96F
CODY           CLOUDY    42  35  76 N9        30.06S
GREYBULL       CLOUDY    46  41  82 NW13      30.03S
WORLAND        LGT RAIN  43  42  97 N5        30.05R FOG
SHERIDAN       CLOUDY    43  41  93 NE3       30.09R
BUFFALO        CLOUDY    39  36  89 N7        30.09R FOG     WCI  34
GILLETTE       LGT RAIN  42  41  96 N9        30.04R
HULETT         RAIN      41  39  93 E8        30.05R
NEWCASTLE      DRIZZLE   45  45 100 SE5       30.03R

$$
WYZ014>020-022>026-101>103-240000-
CENTRAL WYOMING

CITY           SKY/WX    TMP DP  RH WIND       PRES   REMARKS
BIG PINEY      FAIR      51  33  50 S8        29.93F
PINEDALE       MOCLDY    50  32  50 CALM      29.95S
DUBOIS         CLOUDY    41  34  75 SE8       29.98S
LANDER         LGT RAIN  41  40  96 NE9       29.98S FOG
RIVERTON       LGT RAIN  40  39  97 NE10      30.01S WCI  33
CASPER         CLOUDY    42  41  96 N17       29.96F
DOUGLAS        CLOUDY    46  44  93 SE8       29.96F

$$
WYZ021-027>030-104>119-240000-
SOUTHERN WYOMING

CITY           SKY/WX    TMP DP  RH WIND       PRES   REMARKS
EVANSTON       LGT RAIN  43  36  76 N5        29.94R
KEMMERER         N/A     46  34  61 E3        29.94F
FORT BRIDGER   CLOUDY    45  37  71 N6        29.96S
ROCK SPRINGS   CLOUDY    45  40  82 NE13      29.93S
DIXON          FAIR      55  34  44 SW8       29.92S
RAWLINS        LGT RAIN  51  37  58 SE6       29.92R
SARATOGA       CLOUDY    48  37  66 SE13G21   29.93F
LARAMIE        LGT RAIN  41  38  89 SE5       29.99R
CHEYENNE       LGT RAIN  43  40  89 N10       29.99R FOG
TORRINGTON     LGT RAIN  45  44  97 N5        29.99S
PINE BLUFFS    CLOUDY    43  41  93 N10       30.00R

$$



USA.gov is the U.S. government's official web portal to all federal, state and local government web resources and services.